Regional Weather Roundup
Issued by NWS

Home | Current Version | Previous Version | Text Only | Print | Product List | Glossary On
Versions: 1 2 3 4 5 6 7 8 9 10 11 12 13 14 15 16 17 18 19 20 21 22 23 24 25 26 27 28 29 30 31 32 33 34 35 36 37 38 39 40 41 42 43 44 45 46 47 48 49 50
895
ASUS44 KJAN 260803
RWRMS

MISSISSIPPI HOURLY WEATHER ROUNDUP
NATIONAL WEATHER SERVICE JACKSON MS
200 AM CST WED NOV 26 2014

NOTE: "FAIR: INDICATES FEW OR NO CLOUDS BELOW 12,000 FEET WITH NO
SIGNIFICANT WEATHER AND/OR OBSTRUCTIONS TO VISIBILITY.

MSZ001>002-007>008-010>013-018>021-025>028-034>036-260900-
NORTHWEST MISSISSIPPI

CITY           SKY/WX    TMP DP  RH WIND       PRES   REMARKS
CLARKSDALE     FAIR      32  32 100 CALM      30.17F
CLEVELAND      FAIR      34  30  86 SE3       30.17S
GREENWOOD      CLEAR     28  26  92 CALM      30.18F
GREENVILLE     CLEAR     34  30  85 S3        30.16F
GRENADA        FAIR      28  27  93 CALM      30.19S
OLIVE BRANCH   CLEAR     28  30 100 CALM      30.16S
OXFORD         FAIR      25  25 100 CALM      30.18S
TUNICA         SUNNY     32  30  93 CALM      30.17F
$$

MSZ003>006-009-014>017-022>024-029>033-037>039-260900-
NORTHEAST MISSISSIPPI

CITY           SKY/WX    TMP DP  RH WIND       PRES   REMARKS
COLUMBUS AFB   CLEAR     29  25  86 CALM      30.17R
CORINTH        FAIR      28  27  93 CALM      30.16R
GOLDN TRIANGLE CLEAR     34  27  75 NW3       30.15S
STARKVILLE       N/A     28  28 100 CALM      30.17S
TUPELO         CLEAR     30  26  85 CALM      30.16S
$$

MSZ040-058-260900-
CENTRAL MISSISSIPPI

CITY           SKY/WX    TMP DP  RH WIND       PRES   REMARKS
JACKSON INTL   CLEAR     29  26  89 CALM      30.18F
JACKSON HAWKNS CLEAR     31  29  92 CALM      30.18F
MERIDIAN KEY   CLEAR     30  27  88 CALM      30.18S
MERIDIAN NAS   CLEAR     33  28  81 CALM      30.18S
RAYMOND        FAIR      30  25  80 MISG      30.19S
VICKSBURG      CLEAR     32  29  88 CALM      30.18F
$$

MSZ059>079-260900-
SOUTH MISSISSIPPI

CITY           SKY/WX    TMP DP  RH WIND       PRES   REMARKS
BROOKHAVEN     FAIR      32  32 100 CALM      30.20S
HATTIESBURG    CLEAR     35  32  88 CALM      30.21R
MCCOMB         CLEAR     30  28  92 CALM      30.20S
NATCHEZ        CLEAR     32  28  86 CALM      30.18F
PINE BELT      CLEAR     32  28  86 CALM      30.19R
$$

MSZ080>082-260900-
COASTAL MISSISSIPPI

CITY           SKY/WX    TMP DP  RH WIND       PRES   REMARKS
BILOXI         CLEAR     43  33  67 NW9       30.20R
PASCAGOULA     CLEAR     41  30  65 NW6       30.19R
GULFPORT       CLEAR     39  31  72 NW5       30.20R
$$



USA.gov is the U.S. government's official web portal to all federal, state and local government web resources and services.